Simultaneous Nadir Overpasses (SNOs) Predictions

Prediction of SNOs between AQUA and GOES-15 Satellite Orbit:

Table of predicted SNOs for the next 14.0 days since TLE Epoch: 11/24/2018
Index Date Time (AQUA) AQUA Lat,Lon GOES-15 Lat,Lon Distance(km) Time Diff (sec)
1 11/25/2018 22:04:04 0.16,-127.16 -0.06,-128.31 129.42 80
2 11/26/2018 10:25:21 0.88,-132.33 0.04,-128.43 444.64 80
3 11/27/2018 21:51:53 0.81,-124.21 -0.06,-128.35 470.13 80
4 11/28/2018 10:13:10 0.24,-129.38 0.04,-128.46 104.23 80
5 11/30/2018 10:00:59 -0.41,-126.43 0.04,-128.50 235.97 80
6 11/30/2018 22:22:22 -0.73,-131.61 -0.02,-128.40 365.93 80
7 12/02/2018 22:10:11 -0.08,-128.66 -0.02,-128.43 25.63 80
8 12/04/2018 21:58:00 0.58,-125.71 -0.03,-128.47 314.36 80
9 12/05/2018 10:19:17 0.47,-130.87 0.01,-128.59 259.05 80
10 12/07/2018 10:07:05 -0.13,-127.91 0.01,-128.62 80.30 80




NCC Satellite Simultaneous Nadir Overpasses (SNOs) Prediction Service
